STARLINK-3825, 52478

Orbit data source: Space-Track

STARLINK-3825, 52478 is a payload satellite owned by SpaceX/Seattle (US) in LEO that was launched on Fri, 06 May 2022 UTC via an FALCON 9 launch vehicle from the Air Force Eastern Test Range (AFETR). Payload-class satellites include a variety of spacecraft equipped with specific instruments for various scientific and technological missions. These include communications satellites like Starlink; space stations such as the ISS; scientific satellites like the Hubble; Earth observation satellites from companies like Planet Labs, Umbra, and HawkEye 360; GPS; miniature CubeSats for education and research; and military/defense satellites.

Loading next visibility...
Identifier
52478, 2022-049AD
Orbit
LEO
Country
Flag of USUS
Related business
Manufacturer
SpaceX/Seattle
Mission
Operational Commercial Communications
Bus & Motor
STARLINK, Unknown motor
Mass
297 kg wet, ~220 kg dry
Launch date (UTC)
2022-05-06 (4 years ago)
Launch vehicle
FALCON 9
Launch site
Air Force Eastern Test Range (AFETR)
Object type
Payload
Rocket body
Debris
Shape & HBR
Box + 1 Pan, 10.1 m
Radar Cross Section
13.562 m², Large (>1 m²)

Expand to show TLE details & history
Last TLE update: 7 hours ago

TLE from 7 hours ago
0 STARLINK-3825
1 52478U 22049AD  25346.98988074  .00001465  00000-0  11011-3 0  9999
2 52478  53.2178  88.3312 0000686  96.3171 263.7899 15.08833424200404
Epoch: 2025-12-12T23:45Z
TLE epoch observation values (Epoch: 2025-12-12T23:45:25.695Z)
Latitude
-0.00007°
Longitude
10.0505°
Altitude
540.712 km
Speed
7.593 km/s
True Right ascension
05h 53m 19s
True Declination
0° 00' 00"
Sunlit
Object was in full shadow at epoch
Visualization orbit readout
Latitude
Unknown
Longitude
Unknown
Altitude
Unknown
Speed
Unknown
Apparent Right ascension
Unknown
Apparent Declination
Unknown
Sunlit
N/A
Visualization observer readout
Local Sidereal Time
05:21:38
Azimuth
Unknown
Elevation
Unknown
Doppler factor
Unknown
Orbital elements
Apogee altitude
540.483 km
Perigee altitude
539.534 km
Semi-major axis
6,918.145 km
Eccentricity
0.00007
Inclination
53.2178°
RAAN
88.3312°
Arg. of periapsis
96.3171°
True anomaly
263.78209°
Mean anomaly
263.7899°
Eccentric anomaly
263.78599°
Mean motion
3.77189 °/min
Orbital period
95.44 mins
BSTAR
0.00011011
Loading maneuver chart data...
Computing Atmospheric mass density...
Loading historical data...
Loading historical data...
Loading historical data...
Loading historical data...
Loading historical data...
Loading historical data...
Loading historical data...

Documentation

Showing up to 5 results
|